Date String (YYYY-MM-DD hh:mm:ss) UTC,Instrument flags,Ambient pressure (hPa),Sample flow (lpm),Bypass flow (lpm),Sample temperature (°C),Ambient temperature (°C),ASC tube jacket temperature (°C),LED temperature (°C),Box temperature (°C),Sample RH (%),Span deviation,Mass concentration (μg/m³),Mass concentration (μg/m³),Mass concentration (μg/m³)
DateTimeUTC,F1_M11,P_M11,Q1_M11,Q2_M11,T1_M11,T2_M11,T3_M11,T4_M11,T5_M11,U1_M11,ZSPAN_M11,X0_M11,X2_M11,X1_M11
2022-05-11 15:00:00,,0822.8,5.01,0.00,28.0,27.2,00.0,36.7,29.8,17.6,0000.0,0025.58,0006.14,0002.86
2022-05-11 15:01:00,,0822.8,5.00,0.00,28.0,27.2,00.0,36.7,29.9,17.7,0000.0,0025.92,0006.12,0002.88
2022-05-11 15:02:00,,0822.7,4.99,0.00,28.0,27.2,00.0,36.8,29.9,17.8,0000.0,0025.40,0006.08,0002.88
2022-05-11 15:03:00,,0822.7,4.99,0.00,28.0,27.3,00.0,36.8,29.9,17.5,0000.0,0025.94,0006.17,0002.89
2022-05-11 15:04:00,,0822.7,5.01,0.00,28.0,27.3,00.0,36.8,29.9,17.7,0000.0,0024.73,0006.16,0002.88
2022-05-11 15:05:00,,0822.7,4.99,0.00,28.1,27.3,00.0,36.8,29.9,17.5,0000.0,0024.30,0006.16,0002.88
2022-05-11 15:06:00,,0822.7,5.00,0.00,28.1,27.3,00.0,36.8,29.9,17.8,0000.0,0024.29,0006.18,0002.88
2022-05-11 15:07:00,,0822.7,5.00,0.00,28.1,27.3,00.0,36.9,29.9,17.8,0000.0,0023.06,0006.13,0002.86
2022-05-11 15:08:00,,0822.8,5.00,0.00,28.1,27.3,00.0,36.9,30.0,16.7,0000.0,0022.24,0006.07,0002.86
2022-05-11 15:09:00,,0822.7,5.01,0.00,28.1,27.3,00.0,36.9,30.0,16.7,0000.0,0022.30,0006.10,0002.85
2022-05-11 15:10:00,,0822.7,5.00,0.00,28.1,27.3,00.0,36.9,30.0,16.6,0000.0,0023.24,0006.19,0002.87
2022-05-11 15:11:00,,0822.7,4.99,0.00,28.2,27.4,00.0,36.9,30.0,16.7,0000.0,0023.84,0006.16,0002.86
2022-05-11 15:12:00,,0822.7,4.99,0.00,28.2,27.4,00.0,36.9,30.0,17.4,0000.0,0024.64,0006.13,0002.84
2022-05-11 15:13:00,,0822.7,5.00,0.00,28.2,27.4,00.0,37.0,30.0,17.6,0000.0,0026.40,0006.09,0002.83
2022-05-11 15:14:00,,0822.7,5.01,0.00,28.2,27.4,00.0,37.0,30.0,17.8,0000.0,0026.10,0006.00,0002.81
2022-05-11 15:15:00,,0822.7,5.00,0.00,28.2,27.4,00.0,37.0,30.1,17.3,0000.0,0027.12,0006.00,0002.82
2022-05-11 15:16:00,,0822.6,5.00,0.00,28.2,27.4,00.0,37.0,30.1,17.4,0000.0,0028.79,0005.99,0002.82
2022-05-11 15:17:00,,0822.6,4.99,0.00,28.3,27.4,00.0,37.0,30.1,17.0,0000.0,0029.18,0006.02,0002.82
2022-05-11 15:18:00,,0822.6,5.01,0.00,28.3,27.5,00.0,37.1,30.1,17.1,0000.0,0031.30,0006.15,0002.82
2022-05-11 15:19:00,,0822.6,5.00,0.00,28.3,27.5,00.0,37.1,30.1,16.8,0000.0,0034.31,0006.20,0002.82
2022-05-11 15:20:00,,0822.6,5.00,0.00,28.3,27.5,00.0,37.1,30.1,16.6,0000.0,0034.97,0006.18,0002.80
2022-05-11 15:21:00,,0822.7,4.98,0.00,28.3,27.5,00.0,37.1,30.1,16.3,0000.0,0034.60,0006.11,0002.79
2022-05-11 15:22:00,,0822.7,5.01,0.00,28.3,27.5,00.0,37.1,30.1,16.3,0000.0,0034.21,0006.13,0002.79
2022-05-11 15:23:00,,0822.7,5.00,0.00,28.3,27.5,00.0,37.1,30.1,16.5,0000.0,0033.10,0006.14,0002.78
2022-05-11 15:24:00,,0822.6,5.00,0.00,28.3,27.5,00.0,37.2,30.1,16.5,0000.0,0032.42,0006.18,0002.75
2022-05-11 15:25:00,,0822.6,4.99,0.00,28.4,27.5,00.0,37.2,30.2,17.0,0000.0,0033.24,0006.35,0002.77
2022-05-11 15:26:00,,0822.6,5.00,0.00,28.4,27.6,00.0,37.2,30.2,17.4,0000.0,0032.42,0006.43,0002.75
2022-05-11 15:27:00,,0822.6,5.00,0.00,28.4,27.6,00.0,37.2,30.2,17.0,0000.0,0030.83,0006.43,0002.74
2022-05-11 15:28:00,,0822.6,5.00,0.00,28.4,27.6,00.0,37.2,30.3,16.6,0000.0,0029.67,0006.43,0002.74
2022-05-11 15:29:00,,0822.6,5.00,0.00,28.4,27.6,00.0,37.2,30.2,16.4,0000.0,0027.67,0006.33,0002.76
2022-05-11 15:30:00,,0822.7,5.00,0.00,28.4,27.6,00.0,37.2,30.2,16.5,0000.0,0025.87,0006.32,0002.78
2022-05-11 15:31:00,,0822.7,4.98,0.00,28.4,27.6,00.0,37.3,30.3,16.4,0000.0,0025.15,0006.21,0002.77
2022-05-11 15:32:00,,0822.7,4.99,0.00,28.4,27.6,00.0,37.3,30.3,16.3,0000.0,0025.94,0006.24,0002.77
2022-05-11 15:33:00,,0822.7,5.01,0.00,28.5,27.7,00.0,37.3,30.3,16.7,0000.0,0025.25,0006.27,0002.80
2022-05-11 15:34:00,,0822.7,5.01,0.00,28.5,27.7,00.0,37.3,30.3,16.4,0000.0,0026.70,0006.30,0002.82
2022-05-11 15:35:00,,0822.7,5.00,0.00,28.5,27.7,00.0,37.3,30.3,16.4,0000.0,0026.28,0006.25,0002.81
2022-05-11 15:36:00,,0822.6,4.99,0.00,28.5,27.7,00.0,37.3,30.3,16.4,0000.0,0025.96,0006.13,0002.82
2022-05-11 15:37:00,,0822.6,5.00,0.00,28.5,27.7,00.0,37.3,30.4,16.6,0000.0,0025.79,0006.13,0002.84
2022-05-11 15:38:00,,0822.7,5.00,0.00,28.6,27.8,00.0,37.4,30.4,16.4,0000.0,0026.86,0006.20,0002.88
2022-05-11 15:39:00,,0822.6,5.01,0.00,28.6,27.8,00.0,37.4,30.4,15.9,0000.0,0028.34,0006.11,0002.88
2022-05-11 15:40:00,,0822.6,5.00,0.00,28.6,27.8,00.0,37.4,30.4,16.2,0000.0,0028.90,0006.16,0002.87
2022-05-11 15:41:00,,0822.6,4.99,0.00,28.6,27.8,00.0,37.4,30.4,15.7,0000.0,0028.76,0006.20,0002.86
2022-05-11 15:42:00,,0822.6,5.01,0.00,28.6,27.8,00.0,37.4,30.4,15.7,0000.0,0029.70,0006.32,0002.89
2022-05-11 15:43:00,,0822.7,5.01,0.00,28.6,27.8,00.0,37.4,30.4,15.8,0000.0,0029.20,0006.31,0002.91
2022-05-11 15:44:00,,0822.6,5.01,0.00,28.7,27.9,00.0,37.4,30.5,16.4,0000.0,0029.33,0006.30,0002.88
2022-05-11 15:45:00,,0822.6,5.00,0.00,28.7,27.9,00.0,37.5,30.5,16.2,0000.0,0029.21,0006.34,0002.89
2022-05-11 15:46:00,,0822.6,4.99,0.00,28.7,27.9,00.0,37.5,30.5,15.6,0000.0,0030.67,0006.46,0002.94
2022-05-11 15:47:00,,0822.7,4.99,0.00,28.7,27.9,00.0,37.5,30.5,15.2,0000.0,0030.76,0006.48,0002.95
2022-05-11 15:48:00,,0822.7,5.00,0.00,28.7,27.9,00.0,37.5,30.5,15.4,0000.0,0030.09,0006.41,0002.95
2022-05-11 15:49:00,,0822.6,5.02,0.00,28.7,27.9,00.0,37.5,30.5,15.4,0000.0,0030.17,0006.42,0002.96
2022-05-11 15:50:00,,0822.6,5.00,0.00,28.7,27.9,00.0,37.5,30.5,15.3,0000.0,0029.86,0006.57,0002.99
2022-05-11 15:51:00,,0822.6,4.98,0.00,28.7,28.0,00.0,37.6,30.6,15.1,0000.0,0029.54,0006.53,0003.01
2022-05-11 15:52:00,,0822.6,5.01,0.00,28.8,28.0,00.0,37.6,30.6,14.9,0000.0,0028.55,0006.47,0003.02
2022-05-11 15:53:00,,0822.5,5.01,0.00,28.8,28.0,00.0,37.6,30.6,15.2,0000.0,0027.01,0006.45,0003.03
2022-05-11 15:54:00,,0822.5,5.00,0.00,28.8,28.1,00.0,37.6,30.7,15.4,0000.0,0026.30,0006.44,0003.02
2022-05-11 15:55:00,,0822.6,5.00,0.00,28.8,28.1,00.0,37.6,30.7,15.6,0000.0,0026.14,0006.49,0003.04
2022-05-11 15:56:00,,0822.5,4.99,0.00,28.9,28.1,00.0,37.6,30.7,15.4,0000.0,0024.83,0006.44,0003.04
2022-05-11 15:57:00,,0822.5,5.01,0.00,28.9,28.1,00.0,37.7,30.7,15.0,0000.0,0023.10,0006.30,0003.02
2022-05-11 15:58:00,,0822.5,5.00,0.00,28.9,28.1,00.0,37.7,30.7,15.0,0000.0,0023.15,0006.25,0003.02
2022-05-11 15:59:00,,0822.6,5.00,0.00,28.9,28.1,00.0,37.7,30.7,15.1,0000.0,0025.61,0006.26,0003.02
